Location: Hungerford
(51.4167°N, 1.5167°W)
Time: 13:24:05
(UTC+00:00)

Cosmos 1975 - Pass Details

Date: 18 September 2020
Orbit: 540 x 562 km, 82.5° (Epoch: 25 October)

Event Time Altitude Azimuth Distance (km) Brightness Sun altitude
Rises 18:44:54 0° 180° (S) 2,744 6.3 -5.8°
Reaches altitude 10° 18:47:04 10° 177° (S) 1,853 5.4 -6.2°
Maximum altitude 18:51:06 64° 97° (E) 630 2.9 -6.8°
Drops below altitude 10° 18:55:10 10° 16° (NNE) 1,863 5.5 -7.4°
Sets 18:57:22 0° 13° (NNE) 2,761 6.4 -7.7°
